Time,TemperatureF,DewpointF,PressureIn,WindDirection,WindDirectionDegrees,WindSpeedMPH,WindSpeedGustMPH,Humidity,HourlyPrecipIn,Conditions,Clouds,dailyrainin,SoftwareType,DateUTC
2013-03-15 00:03:00,36.0,16.0,30.09,NW,322,4.0,-999.0,45,-99.99,,,0.00,weatherlink.com 1.10,2013-03-15 04:03:00,
2013-03-15 00:18:00,36.2,17.0,30.08,West,274,0.0,-999.0,45,-99.99,,,0.00,weatherlink.com 1.10,2013-03-15 04:18:00,
2013-03-15 00:33:00,36.2,17.0,30.09,West,276,1.0,-999.0,45,-99.99,,,0.00,weatherlink.com 1.10,2013-03-15 04:33:00,
2013-03-15 00:48:00,36.2,17.0,30.09,West,276,1.0,-999.0,46,-99.99,,,0.00,weatherlink.com 1.10,2013-03-15 04:48:00,
2013-03-15 01:03:00,36.0,17.0,30.09,West,268,0.0,-999.0,47,-99.99,,,0.00,weatherlink.com 1.10,2013-03-15 05:03:00,
2013-03-15 01:18:00,36.0,17.0,30.09,West,263,0.0,-999.0,46,-99.99,,,0.00,weatherlink.com 1.10,2013-03-15 05:18:00,
2013-03-15 01:33:00,35.6,18.0,30.09,West,263,0.0,-999.0,48,-99.99,,,0.00,weatherlink.com 1.10,2013-03-15 05:33:00,
2013-03-15 01:48:00,35.3,18.0,30.09,West,266,0.0,-999.0,49,-99.99,,,0.00,weatherlink.com 1.10,2013-03-15 05:48:00,
2013-03-15 02:03:00,34.9,17.0,30.09,West,270,0.0,-999.0,49,-99.99,,,0.00,weatherlink.com 1.10,2013-03-15 06:03:00,
2013-03-15 02:18:00,34.3,18.0,30.09,West,270,1.0,-999.0,51,-99.99,,,0.00,weatherlink.com 1.10,2013-03-15 06:18:00,
2013-03-15 02:33:00,33.7,18.0,30.09,West,276,2.0,-999.0,53,-99.99,,,0.00,weatherlink.com 1.10,2013-03-15 06:33:00,
2013-03-15 02:48:00,33.7,18.0,30.08,WNW,285,3.0,-999.0,53,-99.99,,,0.00,weatherlink.com 1.10,2013-03-15 06:48:00,
2013-03-15 03:03:00,34.0,18.0,30.08,West,278,0.0,-999.0,53,-99.99,,,0.00,weatherlink.com 1.10,2013-03-15 07:03:00,
2013-03-15 03:18:00,34.0,18.0,30.08,West,278,0.0,-999.0,53,-99.99,,,0.00,weatherlink.com 1.10,2013-03-15 07:18:00,
2013-03-15 03:33:00,34.0,19.0,30.08,West,278,0.0,-999.0,54,-99.99,,,0.00,weatherlink.com 1.10,2013-03-15 07:33:00,
2013-03-15 03:48:00,33.8,19.0,30.08,West,278,0.0,-999.0,54,-99.99,,,0.00,weatherlink.com 1.10,2013-03-15 07:48:00,
2013-03-15 04:03:00,33.7,19.0,30.07,WNW,287,2.0,-999.0,55,-99.99,,,0.00,weatherlink.com 1.10,2013-03-15 08:03:00,
2013-03-15 04:18:00,32.7,19.0,30.07,WNW,287,0.0,-999.0,58,-99.99,,,0.00,weatherlink.com 1.10,2013-03-15 08:18:00,
2013-03-15 04:33:00,32.2,19.0,30.07,WNW,285,0.0,-999.0,58,-99.99,,,0.00,weatherlink.com 1.10,2013-03-15 08:33:00,
2013-03-15 04:48:00,32.4,19.0,30.07,WNW,285,0.0,-999.0,58,-99.99,,,0.00,weatherlink.com 1.10,2013-03-15 08:48:00,
2013-03-15 05:03:00,32.1,19.0,30.07,WNW,285,0.0,-999.0,59,-99.99,,,0.00,weatherlink.com 1.10,2013-03-15 09:03:00,
2013-03-15 05:18:00,31.2,19.0,30.07,WNW,285,0.0,-999.0,60,-99.99,,,0.00,weatherlink.com 1.10,2013-03-15 09:18:00,
2013-03-15 05:33:00,31.0,19.0,30.07,WNW,285,0.0,-999.0,61,-99.99,,,0.00,weatherlink.com 1.10,2013-03-15 09:33:00,
2013-03-15 05:48:00,30.3,19.0,30.08,WNW,285,0.0,-999.0,63,-99.99,,,0.00,weatherlink.com 1.10,2013-03-15 09:48:00,
2013-03-15 06:03:00,30.4,19.0,30.08,WNW,285,0.0,-999.0,64,-99.99,,,0.00,weatherlink.com 1.10,2013-03-15 10:03:00,
2013-03-15 06:18:00,30.7,19.0,30.08,WNW,285,0.0,-999.0,63,-99.99,,,0.00,weatherlink.com 1.10,2013-03-15 10:18:00,
2013-03-15 06:33:00,30.4,19.0,30.08,WNW,285,0.0,-999.0,64,-99.99,,,0.00,weatherlink.com 1.10,2013-03-15 10:33:00,
2013-03-15 06:48:00,29.5,19.0,30.08,WNW,285,0.0,-999.0,66,-99.99,,,0.00,weatherlink.com 1.10,2013-03-15 10:48:00,
2013-03-15 07:03:00,29.4,20.0,30.08,WNW,285,0.0,-999.0,67,-99.99,,,0.00,weatherlink.com 1.10,2013-03-15 11:03:00,
2013-03-15 07:18:00,28.8,20.0,30.08,WNW,285,0.0,-999.0,69,-99.99,,,0.00,weatherlink.com 1.10,2013-03-15 11:18:00,
2013-03-15 07:33:00,29.0,20.0,30.08,WNW,285,0.0,-999.0,68,-99.99,,,0.00,weatherlink.com 1.10,2013-03-15 11:33:00,
2013-03-15 07:48:00,29.1,20.0,30.08,WNW,285,0.0,-999.0,69,-99.99,,,0.00,weatherlink.com 1.10,2013-03-15 11:48:00,
2013-03-15 08:03:00,30.0,21.0,30.08,WNW,285,0.0,-999.0,69,-99.99,,,0.00,weatherlink.com 1.10,2013-03-15 12:03:00,
2013-03-15 08:18:00,31.9,22.0,30.08,WNW,285,0.0,-999.0,68,-99.99,,,0.00,weatherlink.com 1.10,2013-03-15 12:18:00,
2013-03-15 08:33:00,33.5,22.0,30.08,West,262,0.0,-999.0,64,-99.99,,,0.00,weatherlink.com 1.10,2013-03-15 12:33:00,
2013-03-15 08:48:00,34.9,22.0,30.07,WSW,237,2.0,-999.0,59,-99.99,,,0.00,weatherlink.com 1.10,2013-03-15 12:48:00,
2013-03-15 09:03:00,36.0,22.0,30.07,WSW,245,2.0,-999.0,56,-99.99,,,0.00,weatherlink.com 1.10,2013-03-15 13:03:00,
2013-03-15 09:18:00,36.6,22.0,30.07,WSW,244,4.0,-999.0,56,-99.99,,,0.00,weatherlink.com 1.10,2013-03-15 13:18:00,
2013-03-15 09:33:00,37.6,22.0,30.06,SW,233,0.0,-999.0,54,-99.99,,,0.00,weatherlink.com 1.10,2013-03-15 13:33:00,
2013-03-15 09:48:00,38.8,22.0,30.05,SW,235,2.0,-999.0,52,-99.99,,,0.00,weatherlink.com 1.10,2013-03-15 13:48:00,
2013-03-15 10:03:00,40.2,21.0,30.05,South,172,0.0,-999.0,47,-99.99,,,0.00,weatherlink.com 1.10,2013-03-15 14:03:00,
2013-03-15 10:18:00,42.1,24.0,30.04,SSW,204,3.0,-999.0,48,-99.99,,,0.00,weatherlink.com 1.10,2013-03-15 14:18:00,
2013-03-15 10:33:00,42.9,22.0,30.04,SSW,202,4.0,-999.0,44,-99.99,,,0.00,weatherlink.com 1.10,2013-03-15 14:33:00,
2013-03-15 10:48:00,43.9,24.0,30.03,SSE,155,6.0,-999.0,45,-99.99,,,0.00,weatherlink.com 1.10,2013-03-15 14:48:00,
2013-03-15 11:03:00,44.2,22.0,30.02,SW,232,6.0,-999.0,41,-99.99,,,0.00,weatherlink.com 1.10,2013-03-15 15:03:00,
2013-03-15 11:18:00,44.5,21.0,30.01,South,191,1.0,-999.0,39,-99.99,,,0.00,weatherlink.com 1.10,2013-03-15 15:18:00,
2013-03-15 11:33:00,45.8,23.0,30.01,WSW,240,0.0,-999.0,41,-99.99,,,0.00,weatherlink.com 1.10,2013-03-15 15:33:00,
2013-03-15 11:48:00,46.1,19.0,30.00,WSW,237,4.0,-999.0,34,-99.99,,,0.00,weatherlink.com 1.10,2013-03-15 15:48:00,
2013-03-15 12:03:00,46.5,17.0,29.99,WSW,244,7.0,-999.0,31,-99.99,,,0.00,weatherlink.com 1.10,2013-03-15 16:03:00,
2013-03-15 12:18:00,48.0,20.0,29.98,SW,217,3.0,-999.0,33,-99.99,,,0.00,weatherlink.com 1.10,2013-03-15 16:18:00,
2013-03-15 12:33:00,47.3,20.0,29.97,SSW,200,3.0,-999.0,34,-99.99,,,0.00,weatherlink.com 1.10,2013-03-15 16:33:00,
2013-03-15 12:48:00,48.9,20.0,29.96,South,180,3.0,-999.0,32,-99.99,,,0.00,weatherlink.com 1.10,2013-03-15 16:48:00,
2013-03-15 13:03:00,49.4,20.0,29.96,WSW,255,3.0,-999.0,31,-99.99,,,0.00,weatherlink.com 1.10,2013-03-15 17:03:00,
2013-03-15 13:18:00,50.2,20.0,29.95,WSW,252,10.0,-999.0,31,-99.99,,,0.00,weatherlink.com 1.10,2013-03-15 17:18:00,
2013-03-15 13:33:00,50.2,20.0,29.94,WSW,245,6.0,-999.0,31,-99.99,,,0.00,weatherlink.com 1.10,2013-03-15 17:33:00,
2013-03-15 13:48:00,51.1,21.0,29.93,SW,231,7.0,-999.0,31,-99.99,,,0.00,weatherlink.com 1.10,2013-03-15 17:48:00,
2013-03-15 14:03:00,51.7,21.0,29.92,WSW,247,12.0,-999.0,30,-99.99,,,0.00,weatherlink.com 1.10,2013-03-15 18:03:00,
2013-03-15 14:18:00,51.7,23.0,29.91,WNW,290,7.0,-999.0,32,-99.99,,,0.00,weatherlink.com 1.10,2013-03-15 18:18:00,
2013-03-15 14:33:00,52.2,23.0,29.90,SW,215,3.0,-999.0,32,-99.99,,,0.00,weatherlink.com 1.10,2013-03-15 18:33:00,
2013-03-15 14:48:00,52.5,22.0,29.88,WSW,256,7.0,-999.0,30,-99.99,,,0.00,weatherlink.com 1.10,2013-03-15 18:48:00,
2013-03-15 15:03:00,52.8,23.0,29.88,SW,231,7.0,-999.0,31,-99.99,,,0.00,weatherlink.com 1.10,2013-03-15 19:03:00,
2013-03-15 15:18:00,52.9,23.0,29.87,WNW,285,3.0,-999.0,31,-99.99,,,0.00,weatherlink.com 1.10,2013-03-15 19:18:00,
2013-03-15 15:33:00,53.5,23.0,29.86,SW,229,12.0,-999.0,30,-99.99,,,0.00,weatherlink.com 1.10,2013-03-15 19:33:00,
2013-03-15 15:48:00,53.9,24.0,29.85,SSW,200,11.0,-999.0,32,-99.99,,,0.00,weatherlink.com 1.10,2013-03-15 19:48:00,
2013-03-15 16:03:00,54.5,24.0,29.84,SW,234,4.0,-999.0,31,-99.99,,,0.00,weatherlink.com 1.10,2013-03-15 20:03:00,
2013-03-15 16:18:00,54.2,25.0,29.83,WSW,247,2.0,-999.0,32,-99.99,,,0.00,weatherlink.com 1.10,2013-03-15 20:18:00,
2013-03-15 16:33:00,55.1,25.0,29.82,WSW,248,4.0,-999.0,31,-99.99,,,0.00,weatherlink.com 1.10,2013-03-15 20:33:00,
2013-03-15 16:48:00,54.8,25.0,29.82,SSW,200,1.0,-999.0,31,-99.99,,,0.00,weatherlink.com 1.10,2013-03-15 20:48:00,
2013-03-15 17:03:00,55.3,26.0,29.82,WNW,282,1.0,-999.0,32,-99.99,,,0.00,weatherlink.com 1.10,2013-03-15 21:03:00,
2013-03-15 17:18:00,55.3,26.0,29.81,WSW,238,6.0,-999.0,32,-99.99,,,0.00,weatherlink.com 1.10,2013-03-15 21:18:00,
2013-03-15 17:33:00,55.4,26.0,29.81,SSW,208,4.0,-999.0,32,-99.99,,,0.00,weatherlink.com 1.10,2013-03-15 21:33:00,
2013-03-15 17:48:00,55.7,27.0,29.80,WSW,244,3.0,-999.0,33,-99.99,,,0.00,weatherlink.com 1.10,2013-03-15 21:48:00,
2013-03-15 18:03:00,55.4,27.0,29.79,SW,236,13.0,-999.0,34,-99.99,,,0.00,weatherlink.com 1.10,2013-03-15 22:03:00,
2013-03-15 18:18:00,55.1,27.0,29.79,SW,233,2.0,-999.0,34,-99.99,,,0.00,weatherlink.com 1.10,2013-03-15 22:18:00,
2013-03-15 18:33:00,54.7,27.0,29.79,SW,236,0.0,-999.0,35,-99.99,,,0.00,weatherlink.com 1.10,2013-03-15 22:33:00,
2013-03-15 18:48:00,54.1,27.0,29.79,SSW,207,5.0,-999.0,36,-99.99,,,0.00,weatherlink.com 1.10,2013-03-15 22:48:00,
2013-03-15 19:03:00,53.5,28.0,29.79,SW,224,3.0,-999.0,37,-99.99,,,0.00,weatherlink.com 1.10,2013-03-15 23:03:00,
2013-03-15 19:18:00,53.1,29.0,29.79,SSW,199,2.0,-999.0,39,-99.99,,,0.00,weatherlink.com 1.10,2013-03-15 23:18:00,
2013-03-15 19:33:00,52.3,28.0,29.79,South,173,1.0,-999.0,40,-99.99,,,0.00,weatherlink.com 1.10,2013-03-15 23:33:00,
2013-03-15 19:48:00,51.7,29.0,29.79,South,182,0.0,-999.0,42,-99.99,,,0.00,weatherlink.com 1.10,2013-03-15 23:48:00,
2013-03-15 20:03:00,51.7,29.0,29.79,South,183,2.0,-999.0,42,-99.99,,,0.00,weatherlink.com 1.10,2013-03-16 00:03:00,
2013-03-15 20:18:00,51.6,29.0,29.79,SSW,199,2.0,-999.0,42,-99.99,,,0.00,weatherlink.com 1.10,2013-03-16 00:18:00,
2013-03-15 20:33:00,51.3,30.0,29.79,SW,218,0.0,-999.0,44,-99.99,,,0.00,weatherlink.com 1.10,2013-03-16 00:33:00,
2013-03-15 20:48:00,50.8,30.0,29.79,SW,218,0.0,-999.0,45,-99.99,,,0.00,weatherlink.com 1.10,2013-03-16 00:48:00,
2013-03-15 21:03:00,50.7,30.0,29.79,SW,218,0.0,-999.0,45,-99.99,,,0.00,weatherlink.com 1.10,2013-03-16 01:03:00,
2013-03-15 21:18:00,49.9,31.0,29.79,SW,218,0.0,-999.0,48,-99.99,,,0.00,weatherlink.com 1.10,2013-03-16 01:18:00,
2013-03-15 21:33:00,47.3,31.0,29.80,SW,218,0.0,-999.0,53,-99.99,,,0.00,weatherlink.com 1.10,2013-03-16 01:33:00,
2013-03-15 21:48:00,47.6,31.0,29.80,SW,218,0.0,-999.0,52,-99.99,,,0.00,weatherlink.com 1.10,2013-03-16 01:48:00,
2013-03-15 22:03:00,46.1,31.0,29.81,SW,218,0.0,-999.0,55,-99.99,,,0.00,weatherlink.com 1.10,2013-03-16 02:03:00,
2013-03-15 22:18:00,45.2,31.0,29.81,SW,218,0.0,-999.0,58,-99.99,,,0.00,weatherlink.com 1.10,2013-03-16 02:18:00,
2013-03-15 22:33:00,44.5,31.0,29.81,SW,218,0.0,-999.0,60,-99.99,,,0.00,weatherlink.com 1.10,2013-03-16 02:33:00,
2013-03-15 22:48:00,44.1,31.0,29.81,SW,218,0.0,-999.0,60,-99.99,,,0.00,weatherlink.com 1.10,2013-03-16 02:48:00,
2013-03-15 23:03:00,43.2,31.0,29.81,SW,218,0.0,-999.0,62,-99.99,,,0.00,weatherlink.com 1.10,2013-03-16 03:03:00,
2013-03-15 23:18:00,43.5,31.0,29.81,SW,218,0.0,-999.0,62,-99.99,,,0.00,weatherlink.com 1.10,2013-03-16 03:18:00,
2013-03-15 23:33:00,43.6,31.0,29.81,SW,218,0.0,-999.0,62,-99.99,,,0.00,weatherlink.com 1.10,2013-03-16 03:33:00,
2013-03-15 23:48:00,42.3,30.0,29.80,SW,218,0.0,-999.0,62,-99.99,,,0.00,weatherlink.com 1.10,2013-03-16 03:48:00,